Year,Month,Day,Hour,Minute,Value (Times are PST for temperature in C)
2022,02,07,00,00,2.60
2022,02,07,00,01,2.60
2022,02,07,00,02,2.60
2022,02,07,00,03,2.70
2022,02,07,00,04,2.70
2022,02,07,00,05,2.70
2022,02,07,00,06,2.70
2022,02,07,00,07,2.70
2022,02,07,00,08,2.80
2022,02,07,00,09,2.80
2022,02,07,00,10,2.80
2022,02,07,00,11,2.80
2022,02,07,00,12,2.80
2022,02,07,00,13,2.80
2022,02,07,00,14,2.90
2022,02,07,00,15,2.90
2022,02,07,00,16,2.90
2022,02,07,00,17,2.90
2022,02,07,00,18,2.90
2022,02,07,00,19,2.90
2022,02,07,00,20,2.90
2022,02,07,00,21,2.90
2022,02,07,00,22,2.80
2022,02,07,00,23,2.80
2022,02,07,00,24,2.80
2022,02,07,00,25,2.70
2022,02,07,00,26,2.70
2022,02,07,00,27,2.70
2022,02,07,00,28,2.70
2022,02,07,00,29,2.70
2022,02,07,00,30,2.70
2022,02,07,00,31,2.70
2022,02,07,00,32,2.70
2022,02,07,00,33,2.70
2022,02,07,00,34,2.70
2022,02,07,00,35,2.70
2022,02,07,00,36,2.70
2022,02,07,00,37,2.80
2022,02,07,00,38,2.80
2022,02,07,00,39,2.80
2022,02,07,00,40,2.90
2022,02,07,00,41,2.90
2022,02,07,00,42,2.90
2022,02,07,00,43,2.90
2022,02,07,00,44,2.90
2022,02,07,00,45,3.00
2022,02,07,00,46,3.00
2022,02,07,00,47,3.00
2022,02,07,00,48,3.10
2022,02,07,00,49,3.10
2022,02,07,00,50,3.10
2022,02,07,00,51,3.20
2022,02,07,00,52,3.20
2022,02,07,00,53,3.20
2022,02,07,00,54,3.20
2022,02,07,00,55,3.30
2022,02,07,00,56,3.30
2022,02,07,00,57,3.30
2022,02,07,00,58,3.30
2022,02,07,00,59,3.30
2022,02,07,01,00,3.30
2022,02,07,01,01,3.30
2022,02,07,01,02,3.40
2022,02,07,01,03,3.40
2022,02,07,01,04,3.40
2022,02,07,01,05,3.40
2022,02,07,01,06,3.50
2022,02,07,01,07,3.50
2022,02,07,01,08,3.50
2022,02,07,01,09,3.50
2022,02,07,01,10,3.50
2022,02,07,01,11,3.50
2022,02,07,01,12,3.40
2022,02,07,01,13,3.40
2022,02,07,01,14,3.40
2022,02,07,01,15,3.40
2022,02,07,01,16,3.50
2022,02,07,01,17,3.50
2022,02,07,01,18,3.50
2022,02,07,01,19,3.50
2022,02,07,01,20,3.50
2022,02,07,01,21,3.50
2022,02,07,01,22,3.40
2022,02,07,01,23,3.40
2022,02,07,01,24,3.40
2022,02,07,01,25,3.30
2022,02,07,01,26,3.30
2022,02,07,01,27,3.20
2022,02,07,01,28,3.10
2022,02,07,01,29,3.00
2022,02,07,01,30,3.00
2022,02,07,01,31,2.90
2022,02,07,01,32,2.90
2022,02,07,01,33,2.90
2022,02,07,01,34,2.90
2022,02,07,01,35,2.90
2022,02,07,01,36,2.90
2022,02,07,01,37,2.90
2022,02,07,01,38,2.90
2022,02,07,01,39,3.00
2022,02,07,01,40,2.90
2022,02,07,01,41,2.90
2022,02,07,01,42,2.90
2022,02,07,01,43,2.90
2022,02,07,01,44,2.90
2022,02,07,01,45,2.90
2022,02,07,01,46,2.90
2022,02,07,01,47,3.00
2022,02,07,01,48,3.00
2022,02,07,01,49,3.00
2022,02,07,01,50,3.00
2022,02,07,01,51,3.10
2022,02,07,01,52,3.20
2022,02,07,01,53,3.20
2022,02,07,01,54,3.30
2022,02,07,01,55,3.40
2022,02,07,01,56,3.40
2022,02,07,01,57,3.50
2022,02,07,01,58,3.50
2022,02,07,01,59,3.60
2022,02,07,02,00,3.60
2022,02,07,02,01,3.60
2022,02,07,02,02,3.70
2022,02,07,02,03,3.80
2022,02,07,02,04,3.90
2022,02,07,02,05,3.90
2022,02,07,02,06,4.00
2022,02,07,02,07,4.00
2022,02,07,02,08,4.00
2022,02,07,02,09,4.10
2022,02,07,02,10,4.10
2022,02,07,02,11,4.10
2022,02,07,02,12,4.10
2022,02,07,02,13,4.20
2022,02,07,02,14,4.20
2022,02,07,02,15,4.20
2022,02,07,02,16,4.20
2022,02,07,02,17,4.20
2022,02,07,02,18,4.20
2022,02,07,02,19,4.20
2022,02,07,02,20,4.20
2022,02,07,02,21,4.20
2022,02,07,02,22,4.20
2022,02,07,02,23,4.20
2022,02,07,02,24,4.20
2022,02,07,02,25,4.20
2022,02,07,02,26,4.20
2022,02,07,02,27,4.30
2022,02,07,02,28,4.30
2022,02,07,02,29,4.30
2022,02,07,02,30,4.30
2022,02,07,02,31,4.40
2022,02,07,02,32,4.40
2022,02,07,02,33,4.40
2022,02,07,02,34,4.40
2022,02,07,02,35,4.40
2022,02,07,02,36,4.40
2022,02,07,02,37,4.40
2022,02,07,02,38,4.40
2022,02,07,02,39,4.40
2022,02,07,02,40,4.40
2022,02,07,02,41,4.30
2022,02,07,02,42,4.30
2022,02,07,02,43,4.30
2022,02,07,02,44,4.30
2022,02,07,02,45,4.30
2022,02,07,02,46,4.30
2022,02,07,02,47,4.30
2022,02,07,02,48,4.30
2022,02,07,02,49,4.30
2022,02,07,02,50,4.30
2022,02,07,02,51,4.30
2022,02,07,02,52,4.30
2022,02,07,02,53,4.30
2022,02,07,02,54,4.30
2022,02,07,02,55,4.30
2022,02,07,02,56,4.30
2022,02,07,02,57,4.30
2022,02,07,02,58,4.30
2022,02,07,02,59,4.30
2022,02,07,03,00,4.30
2022,02,07,03,01,4.30
2022,02,07,03,02,4.30
2022,02,07,03,03,4.30
2022,02,07,03,04,4.30
2022,02,07,03,05,4.30
2022,02,07,03,06,4.30
2022,02,07,03,07,4.30
2022,02,07,03,08,4.30
2022,02,07,03,09,4.30
2022,02,07,03,10,4.30
2022,02,07,03,11,4.30
2022,02,07,03,12,4.30
2022,02,07,03,13,4.30
2022,02,07,03,14,4.30
2022,02,07,03,15,4.30
2022,02,07,03,16,4.30
2022,02,07,03,17,4.30
2022,02,07,03,18,4.30
2022,02,07,03,19,4.30
2022,02,07,03,20,4.40
2022,02,07,03,21,4.40
2022,02,07,03,22,4.40
2022,02,07,03,23,4.40
2022,02,07,03,24,4.40
2022,02,07,03,25,4.40
2022,02,07,03,26,4.40
2022,02,07,03,27,4.30
2022,02,07,03,28,4.30
2022,02,07,03,29,4.30
2022,02,07,03,30,4.30
2022,02,07,03,31,4.30
2022,02,07,03,32,4.30
2022,02,07,03,33,4.40
2022,02,07,03,34,4.40
2022,02,07,03,35,4.40
2022,02,07,03,36,4.40
2022,02,07,03,37,4.50
2022,02,07,03,38,4.50
2022,02,07,03,39,4.50
2022,02,07,03,40,4.50
2022,02,07,03,41,4.50
2022,02,07,03,42,4.50
2022,02,07,03,43,4.50
2022,02,07,03,44,4.50
2022,02,07,03,45,4.50
2022,02,07,03,46,4.50
2022,02,07,03,47,4.50
2022,02,07,03,48,4.60
2022,02,07,03,49,4.60
2022,02,07,03,50,4.60
2022,02,07,03,51,4.60
2022,02,07,03,52,4.60
2022,02,07,03,53,4.70
2022,02,07,03,54,4.70
2022,02,07,03,55,4.70
2022,02,07,03,56,4.70
2022,02,07,03,57,4.70
2022,02,07,03,58,4.70
2022,02,07,03,59,4.80
2022,02,07,04,00,4.80
2022,02,07,04,01,4.80
2022,02,07,04,02,4.90
2022,02,07,04,03,4.90
2022,02,07,04,04,4.90
2022,02,07,04,08,4.90
2022,02,07,04,09,4.90
2022,02,07,04,10,5.00
2022,02,07,04,11,5.00
2022,02,07,04,12,5.10
2022,02,07,04,13,5.10
2022,02,07,04,14,5.10
2022,02,07,04,15,5.20
2022,02,07,04,16,5.20
2022,02,07,04,17,5.20
2022,02,07,04,18,5.20
2022,02,07,04,19,5.20
2022,02,07,04,20,5.30
2022,02,07,04,21,5.30
2022,02,07,04,22,5.40
2022,02,07,04,23,5.40
2022,02,07,04,24,5.50
2022,02,07,04,25,5.50
2022,02,07,04,26,5.50
2022,02,07,04,27,5.60
2022,02,07,04,28,5.60
2022,02,07,04,29,5.70
2022,02,07,04,30,5.70
2022,02,07,04,31,5.80
2022,02,07,04,32,5.90
2022,02,07,04,33,5.90
2022,02,07,04,34,6.00
2022,02,07,04,35,6.10
2022,02,07,04,36,6.20
2022,02,07,04,37,6.40
2022,02,07,04,38,6.50
2022,02,07,04,39,6.60
2022,02,07,04,40,6.70
2022,02,07,04,41,6.70
2022,02,07,04,42,6.80
2022,02,07,04,43,6.80
2022,02,07,04,44,6.80
2022,02,07,04,45,6.90
2022,02,07,04,46,6.90
2022,02,07,04,47,7.00
2022,02,07,04,48,7.10
2022,02,07,04,49,7.10
2022,02,07,04,50,7.20
2022,02,07,04,51,7.20
2022,02,07,04,52,7.30
2022,02,07,04,53,7.40
2022,02,07,04,54,7.40
2022,02,07,04,55,7.50
2022,02,07,04,56,7.50
2022,02,07,04,57,7.50
2022,02,07,04,58,7.60
2022,02,07,04,59,7.70
2022,02,07,05,00,7.80
2022,02,07,05,01,7.80
2022,02,07,05,02,7.90
2022,02,07,05,03,7.90
2022,02,07,05,04,7.90
2022,02,07,05,05,7.90
2022,02,07,05,06,8.00
2022,02,07,05,07,8.00
2022,02,07,05,08,8.00
2022,02,07,05,09,8.00
2022,02,07,05,10,8.10
2022,02,07,05,11,8.10
2022,02,07,05,12,8.10
2022,02,07,05,13,8.20
2022,02,07,05,14,8.20
2022,02,07,05,15,8.20
2022,02,07,05,16,8.30
2022,02,07,05,17,8.30
2022,02,07,05,18,8.30
2022,02,07,05,19,8.30
2022,02,07,05,20,8.30
2022,02,07,05,21,8.30
2022,02,07,05,22,8.40
2022,02,07,05,23,8.40
2022,02,07,05,24,8.40
2022,02,07,05,25,8.40
2022,02,07,05,26,8.50
2022,02,07,05,27,8.50
2022,02,07,05,28,8.50
2022,02,07,05,29,8.40
2022,02,07,05,30,8.40
2022,02,07,05,31,8.40
2022,02,07,05,32,8.40
2022,02,07,05,33,8.40
2022,02,07,05,34,8.40
2022,02,07,05,35,8.40
2022,02,07,05,36,8.40
2022,02,07,05,37,8.50
2022,02,07,05,38,8.50
2022,02,07,05,39,8.50
2022,02,07,05,40,8.50
2022,02,07,05,41,8.50
2022,02,07,05,42,8.50
2022,02,07,05,43,8.60
2022,02,07,05,44,8.60
2022,02,07,05,45,8.60
2022,02,07,05,46,8.60
2022,02,07,05,47,8.60
2022,02,07,05,48,8.60
2022,02,07,05,49,8.60
2022,02,07,05,50,8.60
2022,02,07,05,51,8.60
2022,02,07,05,52,8.60
2022,02,07,05,53,8.60
2022,02,07,05,54,8.60
2022,02,07,05,55,8.60
2022,02,07,05,56,8.60
2022,02,07,05,57,8.60
2022,02,07,05,58,8.70
2022,02,07,05,59,8.70
2022,02,07,06,00,8.80
2022,02,07,06,01,8.80
2022,02,07,06,02,8.80
2022,02,07,06,03,8.80
2022,02,07,06,04,8.80
2022,02,07,06,05,8.80
2022,02,07,06,06,8.80
2022,02,07,06,07,8.80
2022,02,07,06,08,8.80
2022,02,07,06,09,8.70
2022,02,07,06,10,8.70
2022,02,07,06,11,8.70
2022,02,07,06,12,8.70
2022,02,07,06,13,8.80
2022,02,07,06,14,8.80
2022,02,07,06,15,8.80
2022,02,07,06,16,8.80
2022,02,07,06,17,8.80
2022,02,07,06,18,8.80
2022,02,07,06,19,8.80
2022,02,07,06,20,8.80
2022,02,07,06,21,8.80
2022,02,07,06,22,8.80
2022,02,07,06,23,8.80
2022,02,07,06,24,8.80
2022,02,07,06,25,8.80
2022,02,07,06,26,8.70
2022,02,07,06,27,8.70
2022,02,07,06,28,8.70
2022,02,07,06,29,8.70
2022,02,07,06,30,8.60
2022,02,07,06,31,8.60
2022,02,07,06,32,8.60
2022,02,07,06,33,8.60
2022,02,07,06,34,8.60
2022,02,07,06,35,8.60
2022,02,07,06,36,8.60
2022,02,07,06,37,8.60
2022,02,07,06,38,8.60
2022,02,07,06,39,8.60
2022,02,07,06,40,8.60
2022,02,07,06,41,8.60
2022,02,07,06,42,8.60
2022,02,07,06,43,8.60
2022,02,07,06,44,8.70
2022,02,07,06,45,8.70
2022,02,07,06,46,8.70
2022,02,07,06,47,8.70
2022,02,07,06,48,8.70
2022,02,07,06,49,8.70
2022,02,07,06,50,8.70
2022,02,07,06,51,8.70
2022,02,07,06,52,8.70
2022,02,07,06,53,8.70
2022,02,07,06,54,8.70
2022,02,07,06,55,8.70
2022,02,07,06,56,8.70
2022,02,07,06,57,8.70
2022,02,07,06,58,8.70
2022,02,07,06,59,8.70
2022,02,07,07,00,8.70
2022,02,07,07,01,8.70
2022,02,07,07,02,8.70
2022,02,07,07,03,8.70
2022,02,07,07,04,8.80
2022,02,07,07,05,8.80
2022,02,07,07,06,8.80
2022,02,07,07,07,8.80
2022,02,07,07,08,8.80
2022,02,07,07,09,8.80
2022,02,07,07,10,8.80
2022,02,07,07,11,8.80
2022,02,07,07,12,8.80
2022,02,07,07,13,8.80
2022,02,07,07,14,8.80
2022,02,07,07,15,8.80
2022,02,07,07,16,8.80
2022,02,07,07,17,8.90
2022,02,07,07,18,8.90
2022,02,07,07,19,8.90
2022,02,07,07,20,8.90
2022,02,07,07,21,8.90
2022,02,07,07,22,8.80
2022,02,07,07,23,8.80
2022,02,07,07,24,8.80
2022,02,07,07,25,8.80
2022,02,07,07,26,8.80
2022,02,07,07,27,8.80
2022,02,07,07,28,8.80
2022,02,07,07,29,8.80
2022,02,07,07,30,8.80
2022,02,07,07,31,8.80
2022,02,07,07,32,8.70
2022,02,07,07,33,8.70
2022,02,07,07,34,8.70
2022,02,07,07,35,8.70
2022,02,07,07,36,8.70
2022,02,07,07,37,8.70
2022,02,07,07,38,8.70
2022,02,07,07,39,8.70
2022,02,07,07,40,8.60
2022,02,07,07,41,8.60
2022,02,07,07,42,8.60
2022,02,07,07,43,8.60
2022,02,07,07,44,8.60
2022,02,07,07,45,8.60
2022,02,07,07,46,8.60
2022,02,07,07,47,8.60
2022,02,07,07,48,8.60
2022,02,07,07,49,8.60
2022,02,07,07,50,8.60
2022,02,07,07,51,8.60
2022,02,07,07,52,8.60
2022,02,07,07,53,8.60
2022,02,07,07,54,8.60
2022,02,07,07,55,8.60
2022,02,07,07,56,8.60
2022,02,07,07,57,8.50
2022,02,07,07,58,8.50
2022,02,07,07,59,8.50
2022,02,07,08,00,8.50
2022,02,07,08,01,8.50
2022,02,07,08,02,8.50
2022,02,07,08,03,8.50
2022,02,07,08,04,8.50
2022,02,07,08,05,8.50
2022,02,07,08,06,8.50
2022,02,07,08,07,8.50
2022,02,07,08,08,8.50
2022,02,07,08,09,8.40
2022,02,07,08,10,8.40
2022,02,07,08,11,8.40
2022,02,07,08,12,8.40
2022,02,07,08,13,8.40
2022,02,07,08,14,8.40
2022,02,07,08,15,8.40
2022,02,07,08,16,8.40
2022,02,07,08,17,8.40
2022,02,07,08,18,8.40
2022,02,07,08,19,8.40
2022,02,07,08,20,8.40
2022,02,07,08,21,8.40
2022,02,07,08,22,8.40
2022,02,07,08,23,8.40
2022,02,07,08,24,8.40
2022,02,07,08,25,8.40
2022,02,07,08,26,8.40
2022,02,07,08,27,8.40
2022,02,07,08,28,8.40
2022,02,07,08,29,8.40
2022,02,07,08,30,8.40
2022,02,07,08,31,8.40
2022,02,07,08,32,8.40
2022,02,07,08,33,8.40
2022,02,07,08,34,8.50
2022,02,07,08,35,8.50
2022,02,07,08,36,8.50
2022,02,07,08,37,8.50
2022,02,07,08,38,8.50
2022,02,07,08,39,8.50
2022,02,07,08,40,8.60
2022,02,07,08,41,8.60
2022,02,07,08,42,8.60
2022,02,07,08,43,8.60
2022,02,07,08,44,8.60
2022,02,07,08,45,8.70
2022,02,07,08,46,8.70
2022,02,07,08,47,8.70
2022,02,07,08,48,8.70
2022,02,07,08,49,8.70
2022,02,07,08,50,8.70
2022,02,07,08,51,8.70
2022,02,07,08,52,8.70
2022,02,07,08,53,8.60
2022,02,07,08,54,8.60
2022,02,07,08,55,8.60
2022,02,07,08,56,8.60
2022,02,07,08,57,8.60
2022,02,07,08,58,8.60
2022,02,07,08,59,8.60
2022,02,07,09,00,8.60
2022,02,07,09,01,8.60
2022,02,07,09,02,8.60
2022,02,07,09,03,8.60
2022,02,07,09,04,8.60
2022,02,07,09,05,8.60
2022,02,07,09,06,8.60
2022,02,07,09,07,8.60
2022,02,07,09,08,8.60
2022,02,07,09,09,8.60
2022,02,07,09,10,8.50
2022,02,07,09,11,8.50
2022,02,07,09,12,8.50
2022,02,07,09,13,8.50
2022,02,07,09,14,8.50
2022,02,07,09,15,8.40
2022,02,07,09,16,8.40
2022,02,07,09,17,8.40
2022,02,07,09,18,8.40
2022,02,07,09,19,8.40
2022,02,07,09,20,8.40
2022,02,07,09,21,8.40
2022,02,07,09,22,8.40
2022,02,07,09,23,8.40
2022,02,07,09,24,8.30
2022,02,07,09,25,8.30
2022,02,07,09,26,8.30
2022,02,07,09,27,8.30
2022,02,07,09,28,8.30
2022,02,07,09,29,8.30
2022,02,07,09,30,8.30
2022,02,07,09,31,8.30
2022,02,07,09,32,8.30
2022,02,07,09,33,8.30
2022,02,07,09,34,8.30
2022,02,07,09,35,8.30
2022,02,07,09,36,8.30
2022,02,07,09,37,8.30
2022,02,07,09,38,8.40
2022,02,07,09,39,8.40
2022,02,07,09,40,8.40
2022,02,07,09,41,8.50
2022,02,07,09,42,8.50
2022,02,07,09,43,8.60
2022,02,07,09,44,8.70
2022,02,07,09,45,8.70
2022,02,07,09,46,8.70
2022,02,07,09,47,8.80
2022,02,07,09,48,8.80
2022,02,07,09,49,8.80
2022,02,07,09,50,8.90
2022,02,07,09,51,8.90
2022,02,07,09,52,8.90
2022,02,07,09,53,9.00
2022,02,07,09,54,9.00
2022,02,07,09,55,9.10
2022,02,07,09,56,9.10
2022,02,07,09,57,9.10
2022,02,07,09,58,9.10
2022,02,07,09,59,9.10
2022,02,07,10,00,9.10
2022,02,07,10,01,9.10
2022,02,07,10,02,9.20
2022,02,07,10,03,9.20
2022,02,07,10,04,9.20
2022,02,07,10,05,9.20
2022,02,07,10,06,9.20
2022,02,07,10,07,9.30
2022,02,07,10,08,9.30
2022,02,07,10,09,9.20
2022,02,07,10,10,9.20
2022,02,07,10,11,9.30
2022,02,07,10,12,9.30
2022,02,07,10,13,9.40
2022,02,07,10,14,9.40
2022,02,07,10,15,9.40
2022,02,07,10,16,9.50
2022,02,07,10,17,9.50
2022,02,07,10,18,9.50
2022,02,07,10,19,9.60
2022,02,07,10,20,9.60
2022,02,07,10,21,9.60
2022,02,07,10,22,9.70
2022,02,07,10,23,9.70
2022,02,07,10,24,9.70
2022,02,07,10,25,9.70
2022,02,07,10,26,9.70
2022,02,07,10,27,9.70
2022,02,07,10,28,9.70
2022,02,07,10,29,9.80
2022,02,07,10,30,9.80
2022,02,07,10,31,9.80
2022,02,07,10,32,9.80
2022,02,07,10,33,9.80
2022,02,07,10,34,9.90
2022,02,07,10,35,9.90
2022,02,07,10,36,9.90
2022,02,07,10,37,9.80
2022,02,07,10,38,9.80
2022,02,07,10,39,9.80
2022,02,07,10,40,9.80
2022,02,07,10,41,9.80
2022,02,07,10,42,9.80
2022,02,07,10,43,9.80
2022,02,07,10,44,9.80
2022,02,07,10,45,9.80
2022,02,07,10,46,9.80
2022,02,07,10,47,9.80
2022,02,07,10,48,9.80
2022,02,07,10,49,9.90
2022,02,07,10,50,9.90
2022,02,07,10,51,9.90
2022,02,07,10,52,9.90
2022,02,07,10,53,9.90
2022,02,07,10,54,9.90
2022,02,07,10,55,10.00
2022,02,07,10,56,10.00
2022,02,07,10,57,10.00
2022,02,07,10,58,10.00
2022,02,07,10,59,10.10
2022,02,07,11,00,10.10
2022,02,07,11,01,10.10
2022,02,07,11,02,10.10
2022,02,07,11,03,10.20
2022,02,07,11,04,10.20
2022,02,07,11,05,10.20
2022,02,07,11,06,10.20
2022,02,07,11,07,10.20
2022,02,07,11,08,10.30
2022,02,07,11,09,10.30
2022,02,07,11,10,10.30
2022,02,07,11,11,10.30
2022,02,07,11,12,10.40
2022,02,07,11,13,10.40
2022,02,07,11,14,10.40
2022,02,07,11,15,10.40
2022,02,07,11,16,10.30
2022,02,07,11,17,10.30
2022,02,07,11,18,10.30
2022,02,07,11,19,10.30
2022,02,07,11,20,10.30
2022,02,07,11,21,10.30
2022,02,07,11,22,10.30
2022,02,07,11,23,10.30
2022,02,07,11,24,10.30
2022,02,07,11,25,10.40
2022,02,07,11,26,10.40
2022,02,07,11,27,10.40
2022,02,07,11,28,10.40
2022,02,07,11,29,10.40
2022,02,07,11,30,10.40
2022,02,07,11,31,10.40
2022,02,07,11,32,10.40
2022,02,07,11,33,10.40
2022,02,07,11,34,10.40
2022,02,07,11,35,10.40
2022,02,07,11,36,10.40
2022,02,07,11,37,10.50
2022,02,07,11,38,10.50
2022,02,07,11,39,10.50
2022,02,07,11,40,10.50
2022,02,07,11,41,10.60
2022,02,07,11,42,10.60
2022,02,07,11,43,10.60
2022,02,07,11,44,10.60
2022,02,07,11,45,10.70
2022,02,07,11,46,10.70
2022,02,07,11,47,10.70
2022,02,07,11,48,10.70
2022,02,07,11,49,10.70
2022,02,07,11,50,10.70
2022,02,07,11,51,10.70
2022,02,07,11,52,10.70
2022,02,07,11,53,10.80
2022,02,07,11,54,10.80
2022,02,07,11,55,10.80
2022,02,07,11,56,10.80
2022,02,07,11,57,10.80
2022,02,07,11,58,10.80
2022,02,07,11,59,10.80
2022,02,07,12,00,10.80
2022,02,07,12,01,10.90
2022,02,07,12,02,10.90
2022,02,07,12,03,10.90
2022,02,07,12,04,10.90
2022,02,07,12,05,10.90
2022,02,07,12,06,10.90
2022,02,07,12,07,10.90
2022,02,07,12,08,11.00
2022,02,07,12,09,11.10
2022,02,07,12,10,11.10
2022,02,07,12,11,11.10
2022,02,07,12,12,11.20
2022,02,07,12,13,11.20
2022,02,07,12,14,11.20
2022,02,07,12,15,11.20
2022,02,07,12,16,11.20
2022,02,07,12,17,11.20
2022,02,07,12,18,11.20
2022,02,07,12,19,11.20
2022,02,07,12,20,11.10
2022,02,07,12,21,11.10
2022,02,07,12,22,11.10
2022,02,07,12,23,11.00
2022,02,07,12,24,11.00
2022,02,07,12,25,10.90
2022,02,07,12,26,10.90
2022,02,07,12,27,10.80
2022,02,07,12,28,10.70
2022,02,07,12,29,10.60
2022,02,07,12,30,10.60
2022,02,07,12,31,10.50
2022,02,07,12,32,10.50
2022,02,07,12,33,10.40
2022,02,07,12,34,10.40
2022,02,07,12,35,10.40
2022,02,07,12,36,10.40
2022,02,07,12,37,10.30
2022,02,07,12,38,10.30
2022,02,07,12,39,10.30
2022,02,07,12,40,10.30
2022,02,07,12,41,10.30
2022,02,07,12,42,10.30
2022,02,07,12,43,10.30
2022,02,07,12,44,10.30
2022,02,07,12,45,10.30
2022,02,07,12,46,10.30
2022,02,07,12,47,10.30
2022,02,07,12,48,10.30
2022,02,07,12,49,10.30
2022,02,07,12,50,10.30
2022,02,07,12,51,10.40
2022,02,07,12,52,10.40
2022,02,07,12,53,10.40
2022,02,07,12,54,10.40
2022,02,07,12,55,10.50
2022,02,07,12,56,10.50
2022,02,07,12,57,10.50
2022,02,07,12,58,10.50
2022,02,07,12,59,10.50
2022,02,07,13,00,10.50
2022,02,07,13,01,10.50
2022,02,07,13,02,10.60
2022,02,07,13,03,10.60
2022,02,07,13,04,10.50
2022,02,07,13,05,10.50
2022,02,07,13,06,10.50
2022,02,07,13,07,10.50
2022,02,07,13,08,10.50
2022,02,07,13,09,10.50
2022,02,07,13,10,10.50
2022,02,07,13,11,10.50
2022,02,07,13,12,10.50
2022,02,07,13,13,10.50
2022,02,07,13,14,10.50
2022,02,07,13,15,10.50
2022,02,07,13,16,10.50
2022,02,07,13,17,10.50
2022,02,07,13,18,10.50
2022,02,07,13,19,10.40
2022,02,07,13,20,10.40
2022,02,07,13,21,10.40
2022,02,07,13,22,10.30
2022,02,07,13,23,10.30
2022,02,07,13,24,10.30
2022,02,07,13,25,10.30
2022,02,07,13,26,10.30
2022,02,07,13,27,10.30
2022,02,07,13,28,10.30
2022,02,07,13,29,10.40
2022,02,07,13,30,10.40
2022,02,07,13,31,10.40
2022,02,07,13,32,10.40
2022,02,07,13,33,10.40
2022,02,07,13,34,10.30
2022,02,07,13,35,10.30
2022,02,07,13,36,10.30
2022,02,07,13,37,10.30
2022,02,07,13,38,10.30
2022,02,07,13,39,10.30
2022,02,07,13,40,10.30
2022,02,07,13,41,10.30
2022,02,07,13,42,10.30
2022,02,07,13,43,10.20
2022,02,07,13,44,10.20
2022,02,07,13,45,10.30
2022,02,07,13,46,10.30
2022,02,07,13,47,10.30
2022,02,07,13,48,10.30
2022,02,07,13,49,10.30
2022,02,07,13,50,10.30
2022,02,07,13,51,10.30
2022,02,07,13,52,10.30
2022,02,07,13,53,10.30
2022,02,07,13,54,10.30
2022,02,07,13,55,10.40
2022,02,07,13,56,10.50
2022,02,07,13,57,10.50
2022,02,07,13,58,10.60
2022,02,07,13,59,10.70
2022,02,07,14,00,10.70
2022,02,07,14,01,10.70
2022,02,07,14,02,10.70
2022,02,07,14,03,10.70
2022,02,07,14,04,10.70
2022,02,07,14,05,10.60
2022,02,07,14,06,10.60
2022,02,07,14,07,10.50
2022,02,07,14,08,10.50
2022,02,07,14,09,10.50
2022,02,07,14,10,10.40
2022,02,07,14,11,10.40
2022,02,07,14,12,10.40
2022,02,07,14,13,10.40
2022,02,07,14,14,10.40
2022,02,07,14,15,10.50
2022,02,07,14,16,10.50
2022,02,07,14,17,10.50
2022,02,07,14,18,10.50
2022,02,07,14,19,10.50
2022,02,07,14,20,10.60
2022,02,07,14,21,10.60
2022,02,07,14,22,10.60
2022,02,07,14,23,10.70
2022,02,07,14,24,10.70
2022,02,07,14,25,10.80
2022,02,07,14,26,10.80
2022,02,07,14,27,10.90
2022,02,07,14,28,10.90
2022,02,07,14,29,10.90
2022,02,07,14,30,10.90
2022,02,07,14,31,10.90
2022,02,07,14,32,10.80
2022,02,07,14,33,10.80
2022,02,07,14,34,10.80
2022,02,07,14,35,10.80
2022,02,07,14,36,10.80
2022,02,07,14,37,10.70
2022,02,07,14,38,10.70
2022,02,07,14,39,10.60
2022,02,07,14,40,10.60
2022,02,07,14,41,10.70
2022,02,07,14,42,10.70
2022,02,07,14,43,10.70
2022,02,07,14,44,10.80
2022,02,07,14,45,10.80
2022,02,07,14,46,10.80
2022,02,07,14,47,10.80
2022,02,07,14,48,10.90
2022,02,07,14,49,10.90
2022,02,07,14,50,11.00
2022,02,07,14,51,11.00
2022,02,07,14,52,11.00
2022,02,07,14,53,11.10
2022,02,07,14,54,11.10
2022,02,07,14,55,11.10
2022,02,07,14,56,11.20
2022,02,07,14,57,11.20
2022,02,07,14,58,11.20
2022,02,07,14,59,11.20
2022,02,07,15,00,11.20
2022,02,07,15,01,11.20
2022,02,07,15,02,11.20
2022,02,07,15,03,11.20
2022,02,07,15,04,11.20
2022,02,07,15,05,11.20
2022,02,07,15,06,11.20
2022,02,07,15,07,11.20
2022,02,07,15,08,11.20
2022,02,07,15,09,11.20
2022,02,07,15,10,11.10
2022,02,07,15,11,11.10
2022,02,07,15,12,11.10
2022,02,07,15,13,11.10
2022,02,07,15,14,11.00
2022,02,07,15,15,11.00
2022,02,07,15,16,10.90
2022,02,07,15,17,10.80
2022,02,07,15,18,10.80
2022,02,07,15,19,10.80
2022,02,07,15,20,10.80
2022,02,07,15,21,10.80
2022,02,07,15,22,10.80
2022,02,07,15,23,10.80
2022,02,07,15,24,10.80
2022,02,07,15,25,10.80
2022,02,07,15,26,10.80
2022,02,07,15,27,10.80
2022,02,07,15,28,10.80
2022,02,07,15,29,10.80
2022,02,07,15,30,10.70
2022,02,07,15,31,10.70
2022,02,07,15,32,10.70
2022,02,07,15,33,10.70
2022,02,07,15,34,10.70
2022,02,07,15,35,10.70
2022,02,07,15,36,10.60
2022,02,07,15,37,10.60
2022,02,07,15,38,10.60
2022,02,07,15,39,10.60
2022,02,07,15,40,10.60
2022,02,07,15,41,10.50
2022,02,07,15,42,10.50
2022,02,07,15,43,10.50
2022,02,07,15,44,10.50
2022,02,07,15,45,10.40
2022,02,07,15,46,10.40
2022,02,07,15,47,10.40
2022,02,07,15,48,10.40
2022,02,07,15,49,10.40
2022,02,07,15,50,10.30
2022,02,07,15,51,10.30
2022,02,07,15,52,10.30
2022,02,07,15,53,10.30
2022,02,07,15,54,10.30
2022,02,07,15,55,10.30
2022,02,07,15,56,10.20
2022,02,07,15,57,10.20
2022,02,07,15,58,10.20
2022,02,07,15,59,10.10
2022,02,07,16,00,10.10
2022,02,07,16,01,10.10
2022,02,07,16,02,10.10
2022,02,07,16,03,10.00
2022,02,07,16,04,10.00
2022,02,07,16,05,10.00
2022,02,07,16,06,9.90
2022,02,07,16,07,9.90
2022,02,07,16,08,9.90
2022,02,07,16,09,9.90
2022,02,07,16,10,9.90
2022,02,07,16,11,9.80
2022,02,07,16,12,9.80
2022,02,07,16,13,9.80
2022,02,07,16,14,9.80
2022,02,07,16,15,9.80
2022,02,07,16,16,9.80
2022,02,07,16,17,9.70
2022,02,07,16,18,9.70
2022,02,07,16,19,9.70
2022,02,07,16,20,9.70
2022,02,07,16,21,9.70
2022,02,07,16,22,9.60
2022,02,07,16,23,9.60
2022,02,07,16,24,9.60
2022,02,07,16,25,9.60
2022,02,07,16,26,9.60
2022,02,07,16,27,9.60
2022,02,07,16,28,9.50
2022,02,07,16,29,9.50
2022,02,07,16,30,9.50
2022,02,07,16,31,9.40
2022,02,07,16,32,9.40
2022,02,07,16,33,9.40
2022,02,07,16,34,9.40
2022,02,07,16,35,9.40
2022,02,07,16,36,9.40
2022,02,07,16,37,9.40
2022,02,07,16,38,9.30
2022,02,07,16,39,9.30
2022,02,07,16,40,9.30
2022,02,07,16,41,9.30
2022,02,07,16,42,9.30
2022,02,07,16,43,9.30
2022,02,07,16,44,9.20
2022,02,07,16,45,9.20
2022,02,07,16,46,9.20
2022,02,07,16,47,9.20
2022,02,07,16,48,9.20
2022,02,07,16,49,9.20
2022,02,07,16,50,9.20
2022,02,07,16,51,9.20
2022,02,07,16,52,9.20
2022,02,07,16,53,9.20
2022,02,07,16,54,9.20
2022,02,07,16,55,9.20
2022,02,07,16,56,9.20
2022,02,07,16,57,9.20
2022,02,07,16,58,9.20
2022,02,07,16,59,9.30
2022,02,07,17,00,9.30
2022,02,07,17,01,9.30
2022,02,07,17,02,9.30
2022,02,07,17,03,9.30
2022,02,07,17,04,9.30
2022,02,07,17,05,9.30
2022,02,07,17,06,9.30
2022,02,07,17,07,9.30
2022,02,07,17,08,9.30
2022,02,07,17,09,9.30
2022,02,07,17,10,9.30
2022,02,07,17,11,9.30
2022,02,07,17,12,9.20
2022,02,07,17,13,9.20
2022,02,07,17,14,9.20
2022,02,07,17,15,9.20
2022,02,07,17,16,9.20
2022,02,07,17,17,9.10
2022,02,07,17,18,9.10
2022,02,07,17,19,9.10
2022,02,07,17,20,9.10
2022,02,07,17,21,9.10
2022,02,07,17,22,9.10
2022,02,07,17,23,9.00
2022,02,07,17,24,9.00
2022,02,07,17,25,9.00
2022,02,07,17,26,8.90
2022,02,07,17,27,8.90
2022,02,07,17,28,8.80
2022,02,07,17,29,8.80
2022,02,07,17,30,8.80
2022,02,07,17,31,8.70
2022,02,07,17,32,8.70
2022,02,07,17,33,8.70
2022,02,07,17,34,8.70
2022,02,07,17,35,8.70
2022,02,07,17,36,8.70
2022,02,07,17,37,8.70
2022,02,07,17,38,8.70
2022,02,07,17,39,8.70
2022,02,07,17,40,8.70
2022,02,07,17,41,8.70
2022,02,07,17,42,8.70
2022,02,07,17,43,8.70
2022,02,07,17,44,8.70
2022,02,07,17,45,8.70
2022,02,07,17,46,8.60
2022,02,07,17,47,8.60
2022,02,07,17,48,8.60
2022,02,07,17,49,8.60
2022,02,07,17,50,8.60
2022,02,07,17,51,8.60
2022,02,07,17,52,8.50
2022,02,07,17,53,8.50
2022,02,07,17,54,8.50
2022,02,07,17,55,8.40